| time (UTC) | temp F | wind direction | speed MPH | gust MPH | rain 1hr in | rain 24hr in | rain mn in | humidity % | barometer mb |
| 20260506091056 | 41 | 83 | 1.0 | 3.0 | 0.00 | 0.12 | 0.00 | 93 | 1020.1 |
| 20260506090555 | 41 | 85 | 1.0 | 3.0 | 0.00 | 0.12 | 0.00 | 93 | 1020.1 |
| 20260506090056 | 41 | 89 | 0.0 | 2.0 | 0.00 | 0.12 | 0.00 | 92 | 1020.1 |
| 20260506085556 | 41 | 0 | 1.0 | 2.0 | 0.00 | 0.17 | 0.00 | 93 | 1020.1 |
| 20260506085056 | 41 | 85 | 0.0 | 2.0 | 0.00 | 0.17 | 0.00 | 92 | 1020.1 |
| 20260506084556 | 41 | 0 | 0.0 | 2.0 | 0.00 | 0.17 | 0.00 | 93 | 1020.1 |
| 20260506084056 | 41 | 79 | 0.0 | 2.0 | 0.00 | 0.17 | 0.00 | 93 | 1020.1 |
| 20260506083556 | 41 | 107 | 0.0 | 2.0 | 0.00 | 0.17 | 0.00 | 92 | 1020.1 |
| 20260506083057 | 41 | 0 | 0.0 | 3.0 | 0.00 | 0.17 | 0.00 | 92 | 1020.0 |
| 20260506082557 | 41 | 0 | 0.0 | 3.0 | 0.00 | 0.17 | 0.00 | 92 | 1020.0 |
| 20260506082056 | 41 | 86 | 1.0 | 3.0 | 0.00 | 0.17 | 0.00 | 92 | 1020.0 |
| 20260506081556 | 41 | 80 | 0.0 | 2.0 | 0.00 | 0.17 | 0.00 | 92 | 1020.0 |
| 20260506081056 | 41 | 86 | 0.0 | 2.0 | 0.00 | 0.17 | 0.00 | 92 | 1020.0 |
| 20260506080556 | 41 | 0 | 0.0 | 2.0 | 0.00 | 0.17 | 0.00 | 92 | 1020.0 |
| 20260506073059 | 42 | 69 | 0.0 | 3.0 | 0.00 | 0.32 | 0.00 | 92 | 1019.7 |
| 20260506072557 | 42 | 0 | 0.0 | 3.0 | 0.00 | 0.32 | 0.00 | 92 | 1019.7 |
| 20260506072057 | 42 | 84 | 0.0 | 3.0 | 0.00 | 0.32 | 0.00 | 92 | 1019.5 |
| 20260506071556 | 42 | 0 | 0.0 | 3.0 | 0.00 | 0.32 | 0.00 | 92 | 1019.4 |
| 20260506071057 | 42 | 84 | 0.0 | 2.0 | 0.00 | 0.32 | 0.00 | 92 | 1019.4 |
| 20260506070556 | 42 | 78 | 0.0 | 2.0 | 0.00 | 0.32 | 0.00 | 91 | 1019.3 |
| 20260506070115 | 43 | 0 | 0.0 | 2.0 | 0.00 | 0.32 | 0.00 | 91 | 1019.3 |
| 20260506062100 | 44 | 77 | 0.0 | 2.0 | 0.00 | 0.37 | 0.32 | 90 | 1019.0 |
| 20260506061602 | 44 | 85 | 0.0 | 2.0 | 0.00 | 0.37 | 0.32 | 90 | 1018.9 |
| 20260506061057 | 44 | 0 | 0.0 | 2.0 | 0.00 | 0.37 | 0.32 | 91 | 1018.9 |
| 20260506060556 | 44 | 86 | 0.0 | 2.0 | 0.00 | 0.37 | 0.32 | 91 | 1018.8 |
| 20260506060104 | 44 | 86 | 0.0 | 2.0 | 0.00 | 0.37 | 0.32 | 90 | 1018.8 |
| 20260506051056 | 45 | 0 | 0.0 | 2.0 | 0.00 | 0.41 | 0.32 | 90 | 1018.4 |
| 20260506050556 | 44 | 84 | 0.0 | 2.0 | 0.00 | 0.41 | 0.32 | 90 | 1018.4 |
| 20260506050110 | 44 | 0 | 0.0 | 2.0 | 0.00 | 0.41 | 0.32 | 90 | 1018.3 |
| 20260506045057 | 44 | 82 | 0.0 | 2.0 | 0.00 | 0.46 | 0.32 | 90 | 1018.3 |
| 20260506044602 | 44 | 0 | 0.0 | 2.0 | 0.00 | 0.46 | 0.32 | 90 | 1018.3 |
| 20260506044057 | 44 | 78 | 0.0 | 2.0 | 0.00 | 0.46 | 0.32 | 90 | 1018.2 |
| 20260506043558 | 44 | 0 | 0.0 | 1.0 | 0.00 | 0.46 | 0.32 | 90 | 1018.2 |
| 20260506043054 | 44 | 0 | 0.0 | 1.0 | 0.00 | 0.46 | 0.32 | 90 | 1018.1 |
| 20260506042556 | 44 | 0 | 0.0 | 1.0 | 0.00 | 0.46 | 0.32 | 89 | 1018.0 |
| 20260506042057 | 44 | 78 | 0.0 | 2.0 | 0.00 | 0.46 | 0.32 | 90 | 1018.0 |
| 20260506041557 | 44 | 0 | 0.0 | 2.0 | 0.00 | 0.46 | 0.32 | 89 | 1017.8 |
| 20260506041055 | 45 | 0 | 0.0 | 2.0 | 0.00 | 0.46 | 0.32 | 89 | 1017.8 |
| 20260506040556 | 45 | 79 | 0.0 | 2.0 | 0.00 | 0.46 | 0.32 | 89 | 1017.7 |
| 20260506040100 | 45 | 0 | 0.0 | 2.0 | 0.00 | 0.46 | 0.32 | 89 | 1017.6 |
| 20260506035556 | 45 | 0 | 0.0 | 2.0 | 0.00 | 0.49 | 0.32 | 88 | 1017.6 |
| 20260506035056 | 45 | 83 | 0.0 | 1.0 | 0.00 | 0.49 | 0.32 | 88 | 1017.6 |
| 20260506034559 | 45 | 0 | 0.0 | 2.0 | 0.00 | 0.49 | 0.32 | 88 | 1017.4 |
| 20260506034057 | 45 | 83 | 0.0 | 2.0 | 0.00 | 0.49 | 0.32 | 87 | 1017.2 |
| 20260506033558 | 46 | 0 | 0.0 | 2.0 | 0.00 | 0.49 | 0.32 | 87 | 1017.2 |
| 20260506033055 | 46 | 83 | 0.0 | 1.0 | 0.00 | 0.49 | 0.32 | 87 | 1017.1 |
| 20260506032554 | 46 | 0 | 0.0 | 1.0 | 0.00 | 0.49 | 0.32 | 87 | 1017.2 |
| 20260506032056 | 46 | 0 | 0.0 | 2.0 | 0.00 | 0.49 | 0.32 | 87 | 1017.1 |
| 20260506031602 | 46 | 0 | 0.0 | 2.0 | 0.00 | 0.49 | 0.32 | 86 | 1017.0 |
| 20260506031056 | 46 | 0 | 0.0 | 2.0 | 0.00 | 0.49 | 0.32 | 85 | 1016.8 |
| 20260506030556 | 47 | 0 | 0.0 | 2.0 | 0.00 | 0.49 | 0.32 | 85 | 1016.7 |
| 20260506030113 | 47 | 0 | 0.0 | 2.0 | 0.00 | 0.49 | 0.32 | 84 | 1016.7 |
| 20260506025556 | 47 | 0 | 0.0 | 2.0 | 0.00 | 0.51 | 0.32 | 83 | 1016.6 |
| 20260506025056 | 48 | 84 | 0.0 | 2.0 | 0.00 | 0.51 | 0.32 | 83 | 1016.6 |
| 20260506024555 | 48 | 0 | 0.0 | 1.0 | 0.00 | 0.51 | 0.32 | 83 | 1016.5 |
| 20260506024056 | 48 | 0 | 0.0 | 2.0 | 0.00 | 0.51 | 0.32 | 81 | 1016.3 |
| 20260506023555 | 49 | 0 | 0.0 | 2.0 | 0.00 | 0.51 | 0.32 | 81 | 1016.4 |
| 20260506023059 | 49 | 84 | 0.0 | 1.0 | 0.00 | 0.51 | 0.32 | 80 | 1016.4 |
| 20260506022558 | 50 | 0 | 0.0 | 0.0 | 0.00 | 0.51 | 0.32 | 79 | 1016.3 |
| 20260506022056 | 50 | 0 | 0.0 | 0.0 | 0.00 | 0.51 | 0.32 | 79 | 1016.3 |
| 20260506021607 | 51 | 0 | 0.0 | 2.0 | 0.00 | 0.51 | 0.32 | 78 | 1016.2 |
| 20260506021056 | 51 | 0 | 0.0 | 2.0 | 0.00 | 0.51 | 0.32 | 77 | 1016.2 |
| 20260506020556 | 52 | 349 | 0.0 | 0.0 | 0.00 | 0.51 | 0.32 | 74 | 1016.2 |
| 20260506020056 | 52 | 0 | 0.0 | 0.0 | 0.00 | 0.51 | 0.32 | 71 | 1016.1 |
| 20260506015556 | 52 | 0 | 0.0 | 0.0 | 0.00 | 0.58 | 0.32 | 71 | 1016.2 |
| 20260506015058 | 53 | 0 | 0.0 | 2.0 | 0.00 | 0.58 | 0.32 | 71 | 1016.1 |
| 20260506014602 | 53 | 0 | 0.0 | 2.0 | 0.00 | 0.58 | 0.32 | 71 | 1016.0 |
| 20260506014056 | 53 | 0 | 0.0 | 2.0 | 0.00 | 0.58 | 0.32 | 69 | 1016.0 |
| 20260506013554 | 54 | 0 | 0.0 | 3.0 | 0.00 | 0.58 | 0.32 | 68 | 1015.9 |
| 20260506013058 | 54 | 0 | 0.0 | 3.0 | 0.00 | 0.58 | 0.32 | 66 | 1015.8 |
| 20260506012556 | 55 | 15 | 1.0 | 4.0 | 0.00 | 0.58 | 0.32 | 62 | 1015.8 |
| 20260506012057 | 55 | 14 | 0.0 | 4.0 | 0.00 | 0.58 | 0.32 | 62 | 1015.7 |
| 20260506011558 | 55 | 14 | 1.0 | 4.0 | 0.00 | 0.58 | 0.32 | 64 | 1015.7 |
| 20260506011056 | 55 | 0 | 0.0 | 3.0 | 0.00 | 0.58 | 0.32 | 66 | 1015.6 |
| 20260506010557 | 55 | 0 | 0.0 | 3.0 | 0.00 | 0.58 | 0.32 | 64 | 1015.6 |
| 20260506010100 | 55 | 13 | 0.0 | 2.0 | 0.00 | 0.58 | 0.32 | 63 | 1015.5 |
| 20260506005557 | 55 | 0 | 0.0 | 3.0 | 0.00 | 0.71 | 0.32 | 63 | 1015.6 |
| 20260506005056 | 54 | 0 | 0.0 | 3.0 | 0.00 | 0.71 | 0.32 | 64 | 1015.6 |
| 20260506004626 | 55 | 14 | 1.0 | 3.0 | 0.00 | 0.71 | 0.32 | 67 | 1015.6 |
| 20260506004055 | 55 | 14 | 1.0 | 3.0 | 0.00 | 0.71 | 0.32 | 62 | 1015.6 |
| 20260506003556 | 55 | 14 | 1.0 | 3.0 | 0.00 | 0.71 | 0.32 | 66 | 1015.6 |
| 20260506003100 | 56 | 15 | 0.0 | 3.0 | 0.00 | 0.71 | 0.32 | 63 | 1015.6 |
| 20260506002556 | 56 | 14 | 0.0 | 4.0 | 0.00 | 0.71 | 0.32 | 61 | 1015.7 |
| 20260506002059 | 57 | 14 | 1.0 | 5.0 | 0.00 | 0.71 | 0.32 | 62 | 1015.8 |
| 20260506001556 | 57 | 0 | 1.0 | 5.0 | 0.00 | 0.71 | 0.32 | 63 | 1015.7 |
| 20260506001055 | 57 | 15 | 1.0 | 4.0 | 0.00 | 0.71 | 0.32 | 61 | 1015.6 |
| 20260506000556 | 57 | 14 | 0.0 | 4.0 | 0.00 | 0.71 | 0.32 | 64 | 1015.6 |
| 20260506000057 | 57 | 16 | 1.0 | 7.0 | 0.00 | 0.71 | 0.32 | 62 | 1015.5 |
| 20260505235558 | 57 | 14 | 0.0 | 7.0 | 0.00 | 0.74 | 0.32 | 64 | 1015.6 |
| 20260505235056 | 57 | 0 | 1.0 | 5.0 | 0.00 | 0.74 | 0.32 | 66 | 1015.6 |
| 20260505234615 | 57 | 0 | 2.0 | 5.0 | 0.00 | 0.74 | 0.32 | 65 | 1015.5 |
| 20260505234055 | 57 | 14 | 0.0 | 5.0 | 0.00 | 0.74 | 0.32 | 66 | 1015.5 |
| 20260505233556 | 57 | 15 | 1.0 | 4.0 | 0.00 | 0.74 | 0.32 | 65 | 1015.5 |
| 20260505233057 | 57 | 16 | 1.0 | 4.0 | 0.00 | 0.74 | 0.32 | 66 | 1015.5 |
| 20260505232556 | 57 | 14 | 0.0 | 7.0 | 0.00 | 0.74 | 0.32 | 66 | 1015.5 |
| 20260505232056 | 57 | 15 | 0.0 | 7.0 | 0.00 | 0.74 | 0.32 | 65 | 1015.6 |
| 20260505231558 | 57 | 15 | 2.0 | 5.0 | 0.00 | 0.74 | 0.32 | 66 | 1015.6 |
| 20260505231056 | 57 | 0 | 1.0 | 4.0 | 0.00 | 0.74 | 0.32 | 68 | 1015.6 |
| 20260505230556 | 56 | 14 | 0.0 | 4.0 | 0.00 | 0.74 | 0.32 | 71 | 1015.6 |
| 20260505230055 | 55 | 15 | 1.0 | 6.0 | 0.00 | 0.74 | 0.32 | 71 | 1015.7 |
| 20260505225556 | 55 | 16 | 1.0 | 7.0 | 0.00 | 0.85 | 0.32 | 72 | 1015.8 |
| 20260505225056 | 55 | 13 | 1.0 | 7.0 | 0.00 | 0.85 | 0.32 | 68 | 1015.8 |
| 20260505224555 | 55 | 15 | 1.0 | 5.0 | 0.00 | 0.85 | 0.32 | 69 | 1015.8 |
| 20260505224055 | 55 | 0 | 1.0 | 4.0 | 0.00 | 0.85 | 0.32 | 70 | 1015.8 |
| 20260505223555 | 55 | 14 | 1.0 | 5.0 | 0.00 | 0.85 | 0.32 | 69 | 1015.9 |
| 20260505223103 | 55 | 15 | 1.0 | 5.0 | 0.00 | 0.85 | 0.32 | 72 | 1015.8 |
| 20260505222556 | 55 | 15 | 1.0 | 7.0 | 0.00 | 0.85 | 0.32 | 74 | 1015.8 |
| 20260505222057 | 54 | 15 | 1.0 | 7.0 | 0.00 | 0.85 | 0.32 | 77 | 1015.8 |
| 20260505221608 | 53 | 15 | 0.0 | 3.0 | 0.00 | 0.85 | 0.32 | 80 | 1015.8 |
| 20260505221056 | 53 | 0 | 1.0 | 5.0 | 0.00 | 0.85 | 0.32 | 74 | 1015.9 |
| 20260505220600 | 53 | 15 | 1.0 | 5.0 | 0.00 | 0.85 | 0.32 | 76 | 1015.9 |
| 20260505220138 | 53 | 16 | 1.0 | 4.0 | 0.00 | 0.85 | 0.32 | 75 | 1015.9 |
| 20260505215557 | 53 | 15 | 0.0 | 5.0 | 0.00 | 0.92 | 0.32 | 79 | 1016.0 |
| 20260505215056 | 52 | 15 | 1.0 | 5.0 | 0.00 | 0.92 | 0.32 | 79 | 1015.8 |
| 20260505214616 | 51 | 15 | 0.0 | 3.0 | 0.00 | 0.92 | 0.32 | 83 | 1015.9 |
| 20260505214055 | 50 | 15 | 0.0 | 3.0 | 0.00 | 0.92 | 0.32 | 85 | 1016.0 |
| 20260505213558 | 49 | 0 | 0.0 | 3.0 | 0.00 | 0.92 | 0.32 | 86 | 1016.0 |
| 20260505213056 | 49 | 15 | 1.0 | 3.0 | 0.00 | 0.92 | 0.32 | 84 | 1016.0 |
| 20260505212558 | 49 | 0 | 0.0 | 2.0 | 0.00 | 0.92 | 0.32 | 83 | 1016.3 |
| 20260505212056 | 49 | 0 | 0.0 | 2.0 | 0.00 | 0.92 | 0.32 | 82 | 1016.2 |
| 20260505211613 | 49 | 0 | 0.0 | 2.0 | 0.00 | 0.92 | 0.32 | 85 | 1016.4 |
| 20260505211056 | 49 | 13 | 0.0 | 2.0 | 0.00 | 0.92 | 0.32 | 84 | 1016.3 |
| 20260505210557 | 49 | 0 | 0.0 | 3.0 | 0.00 | 0.92 | 0.32 | 85 | 1016.2 |
| 20260505210058 | 49 | 5 | 0.0 | 4.0 | 0.00 | 0.92 | 0.32 | 88 | 1016.2 |
| 20260505205557 | 49 | 0 | 1.0 | 4.0 | 0.00 | 1.01 | 0.32 | 89 | 1016.2 |
| 20260505205056 | 49 | 13 | 1.0 | 3.0 | 0.00 | 1.01 | 0.32 | 85 | 1016.2 |
| 20260505204558 | 49 | 0 | 0.0 | 3.0 | 0.00 | 1.01 | 0.32 | 89 | 1016.1 |
| 20260505204056 | 48 | 0 | 0.0 | 2.0 | 0.00 | 1.01 | 0.32 | 93 | 1016.1 |
| 20260505203556 | 47 | 0 | 0.0 | 2.0 | 0.00 | 1.01 | 0.32 | 89 | 1016.1 |
| 20260505203059 | 47 | 0 | 0.0 | 3.0 | 0.00 | 1.01 | 0.32 | 91 | 1016.1 |
| 20260505202556 | 47 | 15 | 0.0 | 3.0 | 0.00 | 1.01 | 0.32 | 92 | 1016.0 |
| 20260505202100 | 46 | 15 | 0.0 | 2.0 | 0.00 | 1.01 | 0.32 | 91 | 1016.1 |
| 20260505201607 | 46 | 15 | 0.0 | 2.0 | 0.00 | 1.01 | 0.32 | 90 | 1016.0 |
| 20260505201056 | 46 | 0 | 0.0 | 2.0 | 0.00 | 1.01 | 0.32 | 92 | 1016.3 |
| 20260505200557 | 46 | 0 | 0.0 | 2.0 | 0.00 | 1.01 | 0.32 | 91 | 1016.2 |
| 20260505200104 | 46 | 0 | 0.0 | 3.0 | 0.00 | 1.01 | 0.32 | 90 | 1016.2 |
| 20260505195555 | 46 | 0 | 1.0 | 3.0 | 0.00 | 1.10 | 0.32 | 92 | 1016.1 |
| 20260505195056 | 46 | 13 | 0.0 | 2.0 | 0.00 | 1.10 | 0.32 | 94 | 1016.2 |
| 20260505194606 | 45 | 0 | 0.0 | 2.0 | 0.00 | 1.10 | 0.32 | 94 | 1016.2 |
| 20260505194057 | 44 | 0 | 0.0 | 2.0 | 0.00 | 1.10 | 0.32 | 94 | 1016.0 |
| 20260505193556 | 44 | 175 | 0.0 | 2.0 | 0.00 | 1.10 | 0.32 | 94 | 1016.0 |
| 20260505193056 | 44 | 0 | 0.0 | 3.0 | 0.00 | 1.10 | 0.32 | 93 | 1016.0 |
| 20260505192556 | 44 | 0 | 0.0 | 3.0 | 0.00 | 1.10 | 0.32 | 92 | 1016.0 |
| 20260505192100 | 44 | 0 | 0.0 | 2.0 | 0.00 | 1.10 | 0.32 | 94 | 1016.0 |
| 20260505191557 | 44 | 0 | 0.0 | 2.0 | 0.00 | 1.10 | 0.32 | 94 | 1016.0 |
| 20260505191056 | 44 | 0 | 0.0 | 2.0 | 0.00 | 1.10 | 0.32 | 94 | 1016.0 |
| 20260505190557 | 44 | 0 | 0.0 | 2.0 | 0.00 | 1.10 | 0.32 | 95 | 1015.9 |
| 20260505190107 | 44 | 0 | 0.0 | 2.0 | 0.00 | 1.10 | 0.32 | 95 | 1016.0 |
| 20260505185557 | 44 | 261 | 0.0 | 2.0 | 0.00 | 1.10 | 0.32 | 95 | 1015.9 |
| 20260505185058 | 44 | 0 | 0.0 | 2.0 | 0.00 | 1.10 | 0.32 | 95 | 1015.8 |
| 20260505184600 | 43 | 0 | 0.0 | 0.0 | 0.00 | 1.10 | 0.32 | 97 | 1015.8 |
| 20260505184057 | 43 | 0 | 0.0 | 0.0 | 0.00 | 1.10 | 0.32 | 96 | 1015.8 |
| 20260505183616 | 42 | 0 | 0.0 | 0.0 | 0.00 | 1.10 | 0.32 | 95 | 1015.7 |
| 20260505183059 | 42 | 0 | 0.0 | 0.0 | 0.00 | 1.10 | 0.32 | 96 | 1015.7 |
| 20260505182556 | 42 | 0 | 0.0 | 0.0 | 0.00 | 1.10 | 0.32 | 96 | 1015.7 |
| 20260505182056 | 42 | 0 | 0.0 | 0.0 | 0.00 | 1.10 | 0.32 | 97 | 1015.7 |
| 20260505181556 | 42 | 0 | 0.0 | 0.0 | 0.00 | 1.10 | 0.32 | 97 | 1015.7 |
| 20260505181056 | 42 | 0 | 0.0 | 0.0 | 0.00 | 1.10 | 0.32 | 97 | 1015.7 |
| 20260505180556 | 42 | 0 | 0.0 | 0.0 | 0.00 | 1.10 | 0.32 | 97 | 1015.7 |
| 20260505175556 | 42 | 0 | 0.0 | 0.0 | 0.00 | 1.10 | 0.32 | 98 | 1015.5 |
| 20260505175056 | 41 | 0 | 0.0 | 0.0 | 0.00 | 1.10 | 0.32 | 98 | 1015.4 |
| 20260505174555 | 41 | 0 | 0.0 | 0.0 | 0.00 | 1.10 | 0.32 | 98 | 1015.4 |
| 20260505174056 | 41 | 0 | 0.0 | 0.0 | 0.00 | 1.10 | 0.32 | 98 | 1015.4 |
| 20260505173555 | 41 | 0 | 0.0 | 3.0 | 0.00 | 1.10 | 0.32 | 98 | 1015.2 |
| 20260505173058 | 41 | 0 | 0.0 | 3.0 | 0.00 | 1.10 | 0.32 | 98 | 1015.2 |
| 20260505172556 | 41 | 0 | 0.0 | 3.0 | 0.00 | 1.10 | 0.32 | 98 | 1015.0 |
| 20260505172056 | 40 | 0 | 0.0 | 1.0 | 0.00 | 1.10 | 0.32 | 98 | 1015.0 |
| 20260505171554 | 40 | 0 | 0.0 | 1.0 | 0.00 | 1.10 | 0.32 | 98 | 1015.0 |
| 20260505171057 | 40 | 0 | 0.0 | 1.0 | 0.00 | 1.10 | 0.32 | 98 | 1015.0 |
| 20260505170556 | 40 | 0 | 0.0 | 0.0 | 0.00 | 1.10 | 0.32 | 98 | 1015.0 |
| 20260505170101 | 40 | 0 | 0.0 | 0.0 | 0.00 | 1.10 | 0.32 | 98 | 1015.0 |
| 20260505165556 | 39 | 0 | 0.0 | 0.0 | 0.00 | 1.10 | 0.32 | 98 | 1014.9 |
| 20260505165056 | 39 | 0 | 0.0 | 0.0 | 0.00 | 1.10 | 0.32 | 98 | 1014.8 |
| 20260505164623 | 39 | 0 | 0.0 | 0.0 | 0.00 | 1.10 | 0.32 | 98 | 1014.9 |
| 20260505164057 | 39 | 0 | 0.0 | 0.0 | 0.00 | 1.10 | 0.32 | 98 | 1014.8 |
| 20260505163556 | 39 | 0 | 0.0 | 1.0 | 0.00 | 1.10 | 0.32 | 98 | 1014.8 |
| 20260505163059 | 39 | 0 | 0.0 | 1.0 | 0.00 | 1.10 | 0.32 | 98 | 1014.6 |
| 20260505162556 | 39 | 0 | 0.0 | 1.0 | 0.00 | 1.10 | 0.32 | 98 | 1014.6 |
| 20260505162056 | 38 | 0 | 0.0 | 1.0 | 0.00 | 1.10 | 0.32 | 98 | 1014.6 |
| 20260505161602 | 38 | 0 | 0.0 | 0.0 | 0.00 | 1.10 | 0.32 | 98 | 1014.6 |
| 20260505161057 | 38 | 0 | 0.0 | 1.0 | 0.00 | 1.10 | 0.32 | 98 | 1014.5 |
| 20260505160559 | 38 | 0 | 0.0 | 1.0 | 0.00 | 1.10 | 0.32 | 98 | 1014.5 |
| 20260505160109 | 38 | 0 | 0.0 | 1.0 | 0.00 | 1.10 | 0.32 | 98 | 1014.5 |
| 20260505153100 | 37 | 0 | 0.0 | 1.0 | 0.01 | 1.10 | 0.32 | 98 | 1014.1 |
| 20260505152558 | 37 | 0 | 0.0 | 1.0 | 0.01 | 1.10 | 0.32 | 98 | 1014.0 |
| 20260505152056 | 37 | 0 | 0.0 | 1.0 | 0.01 | 1.10 | 0.32 | 98 | 1014.0 |
| 20260505151558 | 37 | 0 | 0.0 | 1.0 | 0.01 | 1.10 | 0.32 | 98 | 1013.9 |
| 20260505151056 | 37 | 0 | 0.0 | 1.0 | 0.01 | 1.10 | 0.32 | 98 | 1013.9 |
| 20260505150556 | 37 | 0 | 0.0 | 1.0 | 0.01 | 1.10 | 0.32 | 98 | 1013.9 |
| 20260505140557 | 35 | 124 | 0.0 | 1.0 | 0.02 | 1.09 | 0.31 | 98 | 1013.4 |
| 20260505140117 | 35 | 0 | 0.0 | 1.0 | 0.02 | 1.09 | 0.31 | 98 | 1013.4 |
| 20260505124604 | 35 | 0 | 0.0 | 2.0 | 0.02 | 1.07 | 0.29 | 98 | 1012.9 |
| 20260505124057 | 35 | 0 | 0.0 | 2.0 | 0.01 | 1.05 | 0.28 | 98 | 1012.9 |
| 20260505123558 | 35 | 0 | 0.0 | 1.0 | 0.01 | 1.05 | 0.28 | 98 | 1012.9 |
| 20260505123058 | 35 | 0 | 0.0 | 1.0 | 0.01 | 1.05 | 0.28 | 98 | 1012.8 |
| 20260505122559 | 35 | 0 | 0.0 | 1.0 | 0.01 | 1.05 | 0.28 | 98 | 1012.9 |
| 20260505122057 | 35 | 0 | 0.0 | 1.0 | 0.02 | 1.05 | 0.28 | 98 | 1012.9 |
| 20260505121619 | 35 | 0 | 0.0 | 1.0 | 0.02 | 1.05 | 0.28 | 98 | 1012.9 |
| 20260505121057 | 35 | 0 | 0.0 | 1.0 | 0.02 | 1.05 | 0.28 | 98 | 1012.8 |
| 20260505120557 | 35 | 0 | 0.0 | 1.0 | 0.01 | 1.04 | 0.27 | 98 | 1012.8 |
| 20260505120110 | 35 | 0 | 0.0 | 1.0 | 0.01 | 1.04 | 0.27 | 98 | 1012.9 |
| 20260505115559 | 35 | 0 | 0.0 | 1.0 | 0.01 | 1.04 | 0.27 | 98 | 1012.9 |
| 20260505115056 | 35 | 0 | 0.0 | 1.0 | 0.01 | 1.04 | 0.27 | 98 | 1012.7 |
| 20260505114556 | 35 | 0 | 0.0 | 1.0 | 0.02 | 1.04 | 0.27 | 98 | 1012.8 |
| 20260505114056 | 35 | 0 | 0.0 | 1.0 | 0.02 | 1.04 | 0.27 | 98 | 1012.7 |
| 20260505113556 | 35 | 0 | 0.0 | 1.0 | 0.02 | 1.04 | 0.27 | 98 | 1012.8 |
| 20260505113057 | 35 | 0 | 0.0 | 1.0 | 0.02 | 1.04 | 0.27 | 97 | 1012.8 |
| 20260505112556 | 35 | 0 | 0.0 | 1.0 | 0.02 | 1.04 | 0.27 | 98 | 1012.9 |
| 20260505112056 | 35 | 0 | 0.0 | 1.0 | 0.01 | 1.04 | 0.26 | 98 | 1012.8 |
| 20260505111559 | 35 | 0 | 0.0 | 1.0 | 0.02 | 1.04 | 0.26 | 98 | 1012.9 |
| 20260505111057 | 35 | 0 | 0.0 | 1.0 | 0.02 | 1.04 | 0.26 | 98 | 1013.0 |
| 20260505110557 | 35 | 174 | 0.0 | 0.0 | 0.02 | 1.04 | 0.26 | 98 | 1012.9 |
| 20260505110104 | 35 | 0 | 0.0 | 0.0 | 0.02 | 1.04 | 0.26 | 98 | 1012.9 |
| 20260505102056 | 34 | 0 | 0.0 | 1.0 | 0.03 | 1.03 | 0.25 | 98 | 1013.2 |
| 20260505101555 | 34 | 0 | 0.0 | 1.0 | 0.03 | 1.02 | 0.24 | 98 | 1013.2 |
| 20260505101056 | 34 | 0 | 0.0 | 1.0 | 0.03 | 1.02 | 0.24 | 98 | 1013.1 |
| 20260505100556 | 34 | 0 | 0.0 | 3.0 | 0.03 | 1.02 | 0.24 | 98 | 1013.2 |
| 20260505100056 | 34 | 0 | 0.0 | 3.0 | 0.04 | 1.02 | 0.24 | 98 | 1013.3 |
| 20260505095556 | 34 | 0 | 0.0 | 1.0 | 0.05 | 1.02 | 0.24 | 97 | 1013.4 |
| 20260505095056 | 34 | 0 | 0.0 | 2.0 | 0.05 | 1.01 | 0.23 | 97 | 1013.3 |
| 20260505094555 | 34 | 0 | 0.0 | 2.0 | 0.06 | 1.01 | 0.23 | 97 | 1013.5 |
| 20260505094056 | 34 | 0 | 0.0 | 2.0 | 0.06 | 1.01 | 0.23 | 97 | 1013.4 |
| 20260505093556 | 34 | 119 | 0.0 | 1.0 | 0.06 | 1.00 | 0.22 | 97 | 1013.2 |
| 20260505093056 | 34 | 0 | 0.0 | 0.0 | 0.06 | 1.00 | 0.22 | 97 | 1013.4 |
| 20260505092558 | 34 | 0 | 0.0 | 1.0 | 0.06 | 1.00 | 0.22 | 97 | 1013.3 |
| 20260505092056 | 34 | 0 | 0.0 | 1.0 | 0.06 | 1.00 | 0.22 | 97 | 1013.5 |
| 20260505091609 | 34 | 0 | 0.0 | 1.0 | 0.06 | 0.99 | 0.21 | 97 | 1013.4 |